Location: Banios
(43.0451°N, 0.2335°E)
Time: 08:00:31
(UTC+00:00)

A-11 Canister half - Pass Details

Date: 18 May 2021
Orbit: 1527 x 1681 km, 47.3° (Epoch: 22 June)

Event Time Altitude Azimuth Distance (km) Brightness Sun altitude
Rises 11:26:40 0° 284° (WNW) 4,766 11.5 65.8°
Reaches altitude 10° 11:29:44 10° 286° (WNW) 3,801 11.1 66.0°
Maximum altitude 11:39:28 75° 12° (NNE) 1,683 10.3 66.4°
Drops below altitude 10° 11:49:31 10° 98° (E) 3,913 11.3 66.6°
Sets 11:52:43 0° 100° (E) 4,912 11.7 66.6°
